contact:dominique.lefevre@mio.osupytheas.fr, maurice.libes@osupytheas.fr, didier.mallarino@osupytheas.fr
Project:EMSO http://www.emso-fr.org/EMSO-France
Depth: 2436.0 m
Title:EMSO Ligure Ouest : Data MII capteur OXYGEN
DateTime,Latitude,Longitude,Optode-Type,Optode_Serial,Oxygen,Saturation_Oxygen,Temperature
DateTime,Latitude,Longitude,Optode-Type,Optode_Serial,µmol.l-1,%,degC
2019-07-11T00:02:04,42.805,6.029,4330,1995,191.966,58.713,13.293
2019-07-11T00:05:04,42.805,6.029,4330,1995,191.837,58.676,13.295
2019-07-11T00:08:04,42.805,6.029,4330,1995,191.814,58.670,13.296
2019-07-11T00:11:04,42.805,6.029,4330,1995,192.001,58.725,13.294
2019-07-11T00:14:04,42.805,6.029,4330,1995,192.122,58.763,13.295
2019-07-11T00:17:04,42.805,6.029,4330,1995,192.156,58.774,13.295
2019-07-11T00:20:04,42.805,6.029,4330,1995,192.289,58.812,13.294
2019-07-11T00:23:04,42.805,6.029,4330,1995,192.065,58.745,13.294
2019-07-11T00:26:04,42.805,6.029,4330,1995,192.035,58.734,13.294
2019-07-11T00:29:04,42.805,6.029,4330,1995,191.973,58.715,13.294
2019-07-11T00:32:04,42.805,6.029,4330,1995,191.968,58.714,13.294
2019-07-11T00:35:04,42.805,6.029,4330,1995,192.145,58.767,13.293
2019-07-11T00:38:04,42.805,6.029,4330,1995,192.260,58.801,13.292
2019-07-11T00:41:04,42.805,6.029,4330,1995,192.196,58.782,13.292
2019-07-11T00:47:04,42.805,6.029,4330,1995,192.103,58.749,13.289
2019-07-11T00:50:04,42.805,6.029,4330,1995,192.214,58.788,13.293
2019-07-11T00:53:04,42.805,6.029,4330,1995,192.302,58.815,13.293
2019-07-11T00:56:04,42.805,6.029,4330,1995,192.185,58.780,13.294
2019-07-11T00:59:04,42.805,6.029,4330,1995,191.885,58.689,13.294
2019-07-11T01:02:04,42.805,6.029,4330,1995,191.867,58.682,13.293
2019-07-11T01:05:04,42.805,6.029,4330,1995,191.874,58.684,13.293
2019-07-11T01:08:04,42.805,6.029,4330,1995,191.964,58.711,13.292
2019-07-11T01:11:04,42.805,6.029,4330,1995,191.922,58.699,13.293
2019-07-11T01:14:04,42.805,6.029,4330,1995,191.861,58.683,13.295
2019-07-11T01:17:04,42.805,6.029,4330,1995,191.846,58.677,13.294
2019-07-11T01:20:04,42.805,6.029,4330,1995,191.927,58.704,13.295
2019-07-11T01:23:04,42.805,6.029,4330,1995,192.027,58.733,13.294
2019-07-11T01:26:04,42.805,6.029,4330,1995,192.256,58.801,13.293
2019-07-11T01:29:04,42.805,6.029,4330,1995,192.329,58.824,13.293
2019-07-11T01:32:04,42.805,6.029,4330,1995,192.376,58.836,13.292
2019-07-11T01:35:04,42.805,6.029,4330,1995,192.295,58.814,13.294
2019-07-11T01:38:04,42.805,6.029,4330,1995,192.247,58.796,13.291
2019-07-11T01:41:04,42.805,6.029,4330,1995,192.144,58.766,13.293
2019-07-11T01:44:04,42.805,6.029,4330,1995,192.162,58.770,13.291
2019-07-11T01:47:04,42.805,6.029,4330,1995,192.097,58.750,13.291
2019-07-11T01:50:04,42.805,6.029,4330,1995,192.185,58.776,13.290
2019-07-11T01:53:04,42.805,6.029,4330,1995,192.015,58.724,13.291
2019-07-11T01:56:04,42.805,6.029,4330,1995,191.982,58.714,13.291
2019-07-11T01:59:04,42.805,6.029,4330,1995,192.214,58.785,13.291
2019-07-11T02:02:04,42.805,6.029,4330,1995,192.155,58.768,13.291
2019-07-11T02:05:04,42.805,6.029,4330,1995,192.107,58.754,13.292
2019-07-11T02:08:04,42.805,6.029,4330,1995,191.976,58.714,13.292
2019-07-11T02:11:04,42.805,6.029,4330,1995,192.034,58.729,13.290
2019-07-11T02:14:04,42.805,6.029,4330,1995,192.143,58.763,13.290
2019-07-11T02:17:04,42.805,6.029,4330,1995,192.168,58.771,13.291
2019-07-11T02:20:04,42.805,6.029,4330,1995,192.043,58.734,13.292
2019-07-11T02:23:04,42.805,6.029,4330,1995,192.126,58.759,13.291
2019-07-11T02:26:04,42.805,6.029,4330,1995,192.138,58.762,13.291
2019-07-11T02:29:04,42.805,6.029,4330,1995,192.137,58.763,13.292
2019-07-11T02:32:04,42.805,6.029,4330,1995,192.188,58.777,13.291
2019-07-11T02:35:04,42.805,6.029,4330,1995,192.102,58.751,13.290
2019-07-11T02:38:04,42.805,6.029,4330,1995,192.338,58.823,13.290
2019-07-11T02:41:04,42.805,6.029,4330,1995,192.355,58.829,13.291
2019-07-11T02:44:04,42.805,6.029,4330,1995,192.333,58.824,13.292
2019-07-11T02:47:04,42.805,6.029,4330,1995,192.308,58.816,13.292
2019-07-11T02:50:04,42.805,6.029,4330,1995,192.175,58.776,13.293
2019-07-11T02:53:04,42.805,6.029,4330,1995,192.187,58.781,13.294
2019-07-11T02:56:04,42.805,6.029,4330,1995,192.062,58.745,13.295
2019-07-11T02:59:04,42.805,6.029,4330,1995,192.075,58.746,13.293
2019-07-11T03:02:04,42.805,6.029,4330,1995,192.054,58.739,13.293
2019-07-11T03:05:04,42.805,6.029,4330,1995,192.082,58.747,13.292
2019-07-11T03:08:04,42.805,6.029,4330,1995,192.100,58.754,13.294
2019-07-11T03:11:04,42.805,6.029,4330,1995,192.227,58.791,13.292
2019-07-11T03:14:04,42.805,6.029,4330,1995,192.185,58.779,13.293
2019-07-11T03:20:04,42.805,6.029,4330,1995,192.064,58.741,13.292
2019-07-11T03:23:04,42.805,6.029,4330,1995,192.094,58.746,13.289
2019-07-11T03:26:04,42.805,6.029,4330,1995,192.150,58.765,13.290
2019-07-11T03:29:04,42.805,6.029,4330,1995,192.324,58.818,13.290
2019-07-11T03:32:04,42.805,6.029,4330,1995,192.225,58.791,13.293
2019-07-11T03:35:04,42.805,6.029,4330,1995,192.138,58.764,13.292
2019-07-11T03:38:04,42.805,6.029,4330,1995,192.157,58.770,13.292
2019-07-11T03:41:04,42.805,6.029,4330,1995,192.310,58.817,13.292
2019-07-11T03:44:04,42.805,6.029,4330,1995,192.334,58.824,13.293
2019-07-11T03:47:04,42.805,6.029,4330,1995,192.219,58.790,13.293
2019-07-11T03:50:04,42.805,6.029,4330,1995,192.161,58.771,13.292
2019-07-11T03:53:04,42.805,6.029,4330,1995,192.149,58.770,13.294
2019-07-11T03:56:04,42.805,6.029,4330,1995,192.041,58.734,13.292
2019-07-11T03:59:04,42.805,6.029,4330,1995,192.023,58.730,13.293
2019-07-11T04:02:04,42.805,6.029,4330,1995,191.994,58.721,13.293
2019-07-11T04:05:04,42.805,6.029,4330,1995,192.097,58.752,13.293
2019-07-11T04:08:04,42.805,6.029,4330,1995,192.011,58.730,13.296
2019-07-11T04:11:04,42.805,6.029,4330,1995,192.017,58.730,13.295
2019-07-11T04:14:04,42.805,6.029,4330,1995,192.181,58.777,13.292
2019-07-11T04:17:04,42.805,6.029,4330,1995,192.200,58.784,13.293
2019-07-11T04:20:04,42.805,6.029,4330,1995,192.081,58.749,13.294
2019-07-11T04:23:04,42.805,6.029,4330,1995,191.977,58.718,13.295
2019-07-11T04:26:04,42.805,6.029,4330,1995,191.930,58.705,13.296
2019-07-11T04:29:04,42.805,6.029,4330,1995,191.852,58.680,13.295
2019-07-11T04:32:04,42.805,6.029,4330,1995,191.846,58.681,13.297
2019-07-11T04:35:04,42.805,6.029,4330,1995,191.897,58.696,13.297
2019-07-11T04:38:04,42.805,6.029,4330,1995,192.024,58.734,13.296
2019-07-11T04:41:04,42.805,6.029,4330,1995,192.032,58.734,13.294
2019-07-11T04:44:04,42.805,6.029,4330,1995,192.178,58.780,13.295
2019-07-11T04:47:04,42.805,6.029,4330,1995,192.090,58.753,13.295
2019-07-11T04:50:04,42.805,6.029,4330,1995,192.039,58.737,13.294
2019-07-11T04:53:04,42.805,6.029,4330,1995,192.022,58.731,13.294
2019-07-11T04:56:04,42.805,6.029,4330,1995,192.130,58.764,13.294
2019-07-11T04:59:04,42.805,6.029,4330,1995,192.165,58.775,13.294
2019-07-11T05:02:04,42.805,6.029,4330,1995,192.181,58.781,13.295
2019-07-11T05:05:04,42.805,6.029,4330,1995,192.270,58.807,13.294
2019-07-11T05:08:04,42.805,6.029,4330,1995,192.190,58.781,13.293
2019-07-11T05:11:04,42.805,6.029,4330,1995,191.855,58.678,13.293
2019-07-11T05:14:04,42.805,6.029,4330,1995,191.822,58.669,13.294
2019-07-11T05:17:04,42.805,6.029,4330,1995,191.986,58.718,13.292
2019-07-11T05:20:04,42.805,6.029,4330,1995,192.178,58.777,13.293
2019-07-11T05:23:04,42.805,6.029,4330,1995,192.206,58.787,13.294
2019-07-11T05:26:04,42.805,6.029,4330,1995,192.113,58.758,13.294
2019-07-11T05:29:04,42.805,6.029,4330,1995,192.005,58.725,13.294
2019-07-11T05:32:04,42.805,6.029,4330,1995,192.002,58.724,13.293
2019-07-11T05:35:04,42.805,6.029,4330,1995,192.073,58.746,13.294
2019-07-11T05:38:04,42.805,6.029,4330,1995,192.209,58.785,13.292
2019-07-11T05:41:04,42.805,6.029,4330,1995,192.155,58.769,13.292
2019-07-11T05:44:04,42.805,6.029,4330,1995,192.063,58.745,13.295
